記事タイトル:Comet C/2003 H1 (LINEAR) 

最新の情報は「更新」や「再読み込み」ボタンを押してリロードしてご覧ください。

書き込み欄へ  ヘルプ
お名前: 佐藤 裕久   
LINEARプロジェクトにより外見上は小惑星状天体の発見が通報され、NEO Confirmation Page
に掲載された。
H. Mikuz (Crni Vrh、スロベニア、0.60-m反射 + R フィルター;強い集光あり、コマ約20″、
m1 = 15.9)、P. Kusnirak (Ondrejov天文台、0.65-m 反射;「少し拡散状に思われる」)と 
T. Spahr (Whipple天文台、Mt. Hopkins、1.2-m 反射; 南に向かって約5″の微かに扇形の尾
がある)は、4月25日に得たCCDフレームから彗星状であることを伝えた。

発見位置は次のとおり、

     2003 UT             R.A. (2000) Decl.        m2
     Apr. 24.38253   18 15 48.00   +19 55 25.3   16.9

暫定放物線軌道要素と位置推算表は次のとおり、

Orbital elements:
    C/2003 H1 (LINEAR)
T 2004 Mar. 5.556 TT                                    MPC
q   2.86389              (2000.0)            P               Q
                   Peri.  175.408       -0.967611       -0.222444
                   Node    10.792       -0.247134       +0.931163
e   1.0            Incl.  140.395       -0.051515       -0.288885
From 45 observations 2003 Apr. 24-25.

Ephemeris:
    C/2003 H1 (LINEAR)
Date    TT    R. A. (2000) Decl.     Delta      r     Elong.  Phase   m1
2003 04 21    18 19.25   +19 24.9    3.821    4.234   107.6    13.1  15.7
2003 05 01    18 08.07   +20 54.2    3.628    4.167   115.9    12.6  15.5
2003 05 11    17 53.85   +22 16.5    3.458    4.101   123.3    11.9  15.3
2003 05 21    17 36.68   +23 24.3    3.318    4.035   129.3    11.2  15.2
2003 05 31    17 16.99   +24 09.2    3.213    3.970   132.6    10.8  15.0
2003 06 10    16 55.64   +24 23.9    3.148    3.906   132.5    11.0  14.9
2003 06 20    16 33.84   +24 04.8    3.124    3.843   128.8    11.9  14.8
2003 06 30    16 12.85   +23 12.4    3.139    3.781   122.3    13.1  14.8
2003 07 10    15 53.79   +21 51.7    3.189    3.720   114.0    14.5  14.7
2003 07 20    15 37.36   +20 10.4    3.267    3.660   104.8    15.6  14.7
2003 07 30    15 23.83   +18 16.2    3.366    3.602    95.1    16.3  14.7

(IAUC 8122、MPEC 2003-H28)
[2003年4月26日 13時1分25秒]

この記事への返信をどうぞ。
氏名
E-mail URL



記事一覧に戻る